Time,TemperatureF,DewpointF,PressureIn,WindDirection,WindDirectionDegrees,WindSpeedMPH,WindSpeedGustMPH,Humidity,HourlyPrecipIn,Conditions,Clouds,dailyrainin,SoftwareType,DateUTC
2013-03-24 00:05:00,44.4,37.9,29.83,North,7,3.0,6.0,13,0.00,,,0.00,meteohub,2013-03-24 05:05:00,
2013-03-24 00:10:00,44.1,37.8,29.83,NNE,30,4.0,6.0,13,0.00,,,0.00,meteohub,2013-03-24 05:10:00,
2013-03-24 00:15:00,43.9,37.8,29.83,NE,36,4.0,8.0,13,0.00,,,0.00,meteohub,2013-03-24 05:15:00,
2013-03-24 00:21:00,43.5,37.8,29.83,NNE,14,5.0,8.0,13,0.00,,,0.00,meteohub,2013-03-24 05:21:00,
2013-03-24 00:26:00,43.5,37.6,29.83,NE,56,4.0,8.0,13,0.00,,,0.00,meteohub,2013-03-24 05:26:00,
2013-03-24 00:31:00,43.3,37.6,29.83,NNE,26,5.0,6.0,13,0.00,,,0.00,meteohub,2013-03-24 05:31:00,
2013-03-24 00:36:00,43.3,38.3,29.83,NE,48,3.0,8.0,13,0.00,,,0.00,meteohub,2013-03-24 05:36:00,
2013-03-24 00:41:00,43.3,38.7,29.83,NNE,21,5.0,8.0,13,0.00,,,0.00,meteohub,2013-03-24 05:41:00,
2013-03-24 00:47:00,43.3,38.5,29.83,NNE,12,6.0,8.0,13,0.00,,,0.00,meteohub,2013-03-24 05:47:00,
2013-03-24 00:52:00,43.3,38.3,29.83,East,81,5.0,6.0,13,0.00,,,0.00,meteohub,2013-03-24 05:52:00,
2013-03-24 00:57:00,43.3,38.1,29.83,NE,53,3.0,7.0,13,0.00,,,0.00,meteohub,2013-03-24 05:57:00,
2013-03-24 01:02:00,43.2,38.1,29.83,ENE,64,6.0,8.0,13,0.00,,,0.00,meteohub,2013-03-24 06:02:00,
2013-03-24 01:08:00,42.8,37.9,29.83,NE,51,6.0,9.0,13,0.00,,,0.00,meteohub,2013-03-24 06:08:00,
2013-03-24 01:13:00,42.4,38.3,29.83,NNE,33,9.0,9.0,13,0.00,,,0.00,meteohub,2013-03-24 06:13:00,
2013-03-24 01:18:00,42.3,38.8,29.83,NE,49,4.0,10.0,13,0.00,,,0.00,meteohub,2013-03-24 06:18:00,
2013-03-24 01:23:00,41.9,38.7,29.83,NNE,30,9.0,10.0,13,0.00,,,0.00,meteohub,2013-03-24 06:23:00,
2013-03-24 01:28:00,41.7,38.5,29.83,NE,40,6.0,11.0,13,0.00,,,0.00,meteohub,2013-03-24 06:28:00,
2013-03-24 01:33:00,41.4,38.3,29.83,NE,51,5.0,11.0,13,0.00,,,0.00,meteohub,2013-03-24 06:33:00,
2013-03-24 01:39:00,41.0,38.3,29.83,ENE,62,4.0,11.0,13,0.00,,,0.00,meteohub,2013-03-24 06:39:00,
2013-03-24 01:44:00,40.8,38.1,29.83,NE,34,4.0,11.0,13,0.00,,,0.00,meteohub,2013-03-24 06:44:00,
2013-03-24 01:49:00,40.6,38.8,29.83,NNE,20,6.0,11.0,13,0.00,,,0.00,meteohub,2013-03-24 06:49:00,
2013-03-24 01:54:00,40.5,38.8,29.86,ENE,60,8.0,10.0,13,0.00,,,0.00,meteohub,2013-03-24 06:54:00,
2013-03-24 01:59:00,40.3,38.8,29.86,NE,46,8.0,10.0,16,0.00,,,0.00,meteohub,2013-03-24 06:59:00,
2013-03-24 02:04:00,39.9,37.8,29.86,NE,47,8.0,10.0,16,0.00,,,0.00,meteohub,2013-03-24 07:04:00,
2013-03-24 02:10:00,39.7,37.6,29.83,NNE,28,6.0,10.0,18,0.00,,,0.00,meteohub,2013-03-24 07:10:00,
2013-03-24 02:15:00,39.6,37.6,29.83,NE,55,8.0,11.0,21,0.00,,,0.00,meteohub,2013-03-24 07:15:00,
2013-03-24 02:20:00,39.2,38.8,29.83,NE,42,6.0,11.0,26,0.00,,,0.00,meteohub,2013-03-24 07:20:00,
2013-03-24 02:25:00,38.8,37.9,29.80,NE,40,6.0,11.0,29,0.00,,,0.00,meteohub,2013-03-24 07:25:00,
2013-03-24 02:32:00,38.7,37.6,29.80,ENE,58,5.0,11.0,30,0.00,,,0.00,meteohub,2013-03-24 07:32:00,
2013-03-24 02:37:00,38.5,37.6,29.80,NE,48,6.0,11.0,31,0.00,,,0.00,meteohub,2013-03-24 07:37:00,
2013-03-24 02:42:00,38.3,37.8,29.80,NNE,27,8.0,11.0,33,0.00,,,0.00,meteohub,2013-03-24 07:42:00,
2013-03-24 02:47:00,38.1,38.3,29.80,East,86,6.0,11.0,34,0.00,,,0.00,meteohub,2013-03-24 07:47:00,
2013-03-24 02:53:00,37.9,38.1,29.80,NE,43,6.0,14.0,36,0.00,,,0.00,meteohub,2013-03-24 07:53:00,
2013-03-24 02:58:00,37.9,37.9,29.77,ENE,66,6.0,14.0,37,0.00,,,0.00,meteohub,2013-03-24 07:58:00,
2013-03-24 03:03:00,37.9,37.6,29.77,NE,44,6.0,14.0,39,0.00,,,0.00,meteohub,2013-03-24 08:03:00,
2013-03-24 03:08:00,37.8,37.6,29.77,ENE,74,8.0,9.0,39,0.00,,,0.00,meteohub,2013-03-24 08:08:00,
2013-03-24 03:13:00,37.6,37.4,29.77,NNE,24,10.0,11.0,39,0.00,,,0.00,meteohub,2013-03-24 08:13:00,
2013-03-24 03:19:00,37.4,37.4,29.77,ENE,76,5.0,17.0,39,0.00,,,0.00,meteohub,2013-03-24 08:19:00,
2013-03-24 03:24:00,37.4,37.2,29.77,ENE,75,4.0,17.0,39,0.00,,,0.00,meteohub,2013-03-24 08:24:00,
2013-03-24 03:29:00,37.2,37.0,29.77,North,7,4.0,17.0,40,0.00,,,0.00,meteohub,2013-03-24 08:29:00,
2013-03-24 03:34:00,37.0,37.0,29.77,NNE,15,6.0,10.0,40,0.00,,,0.00,meteohub,2013-03-24 08:34:00,
2013-03-24 03:39:00,36.9,37.6,29.77,ENE,60,11.0,11.0,40,0.00,,,0.00,meteohub,2013-03-24 08:39:00,
2013-03-24 03:45:00,36.7,37.6,29.77,NNE,18,6.0,11.0,40,0.00,,,0.00,meteohub,2013-03-24 08:45:00,
2013-03-24 03:50:00,36.7,37.6,29.77,ENE,58,5.0,11.0,41,0.00,,,0.00,meteohub,2013-03-24 08:50:00,
2013-03-24 03:55:00,36.5,37.4,29.80,NE,35,6.0,11.0,41,0.00,,,0.00,meteohub,2013-03-24 08:55:00,
2013-03-24 04:00:00,36.3,37.4,29.80,ENE,68,2.0,10.0,41,0.00,,,0.00,meteohub,2013-03-24 09:00:00,
2013-03-24 04:05:00,36.3,37.2,29.80,East,82,5.0,11.0,41,0.00,,,0.00,meteohub,2013-03-24 09:05:00,
2013-03-24 04:10:00,36.1,37.2,29.77,NE,50,5.0,11.0,41,0.00,,,0.00,meteohub,2013-03-24 09:10:00,
2013-03-24 04:16:00,36.0,37.0,29.77,ENE,71,6.0,11.0,42,0.00,,,0.00,meteohub,2013-03-24 09:16:00,
2013-03-24 04:21:00,36.0,37.0,29.77,East,82,8.0,12.0,42,0.00,,,0.00,meteohub,2013-03-24 09:21:00,
2013-03-24 04:26:00,35.8,36.9,29.77,NE,55,6.0,12.0,42,0.00,,,0.00,meteohub,2013-03-24 09:26:00,
2013-03-24 04:32:00,35.6,36.9,29.77,NNE,30,6.0,11.0,43,0.00,,,0.00,meteohub,2013-03-24 09:32:00,
2013-03-24 04:37:00,35.6,36.9,29.77,NE,34,10.0,10.0,43,0.00,,,0.00,meteohub,2013-03-24 09:37:00,
2013-03-24 04:42:00,35.6,36.7,29.74,NE,49,9.0,10.0,43,0.00,,,0.00,meteohub,2013-03-24 09:42:00,
2013-03-24 04:47:00,35.4,36.7,29.74,NE,39,8.0,11.0,44,0.00,,,0.00,meteohub,2013-03-24 09:47:00,
2013-03-24 04:52:00,35.2,36.7,29.74,NNE,19,8.0,11.0,44,0.00,,,0.00,meteohub,2013-03-24 09:52:00,
2013-03-24 04:58:00,35.2,36.5,29.74,NE,53,6.0,12.0,44,0.00,,,0.00,meteohub,2013-03-24 09:58:00,
2013-03-24 05:03:00,35.2,36.5,29.74,NE,51,11.0,13.0,45,0.00,,,0.00,meteohub,2013-03-24 10:03:00,
2013-03-24 05:08:00,35.1,36.3,29.74,ENE,73,8.0,13.0,45,0.00,,,0.00,meteohub,2013-03-24 10:08:00,
2013-03-24 05:13:00,35.1,36.3,29.71,NE,56,6.0,13.0,44,0.00,,,0.00,meteohub,2013-03-24 10:13:00,
2013-03-24 05:19:00,35.1,36.3,29.71,NE,39,5.0,13.0,44,0.00,,,0.00,meteohub,2013-03-24 10:19:00,
2013-03-24 05:24:00,34.9,36.9,29.71,NE,47,8.0,11.0,44,0.00,,,0.00,meteohub,2013-03-24 10:24:00,
2013-03-24 05:29:00,34.9,37.6,29.71,NNE,24,8.0,11.0,44,0.00,,,0.00,meteohub,2013-03-24 10:29:00,
2013-03-24 05:34:00,34.9,37.6,29.71,NE,49,8.0,11.0,43,0.00,,,0.00,meteohub,2013-03-24 10:34:00,
2013-03-24 05:39:00,34.7,37.4,29.71,ENE,64,7.0,11.0,43,0.00,,,0.00,meteohub,2013-03-24 10:39:00,
2013-03-24 05:45:00,34.7,37.0,29.71,NNE,30,6.0,11.0,43,0.00,,,0.00,meteohub,2013-03-24 10:45:00,
2013-03-24 05:50:00,34.7,37.0,29.71,NNE,12,4.0,11.0,43,0.00,,,0.00,meteohub,2013-03-24 10:50:00,
2013-03-24 05:55:00,34.7,37.6,29.71,East,79,9.0,11.0,43,0.00,,,0.00,meteohub,2013-03-24 10:55:00,
2013-03-24 06:00:00,34.7,37.4,29.71,ENE,70,8.0,11.0,43,0.00,,,0.00,meteohub,2013-03-24 11:00:00,
2013-03-24 06:05:00,34.7,37.2,29.71,ENE,71,4.0,11.0,43,0.00,,,0.00,meteohub,2013-03-24 11:05:00,
2013-03-24 06:11:00,34.7,37.0,29.71,NE,44,4.0,10.0,43,0.00,,,0.00,meteohub,2013-03-24 11:11:00,
2013-03-24 06:16:00,34.7,37.0,29.71,ENE,62,3.0,8.0,43,0.00,,,0.00,meteohub,2013-03-24 11:16:00,
2013-03-24 06:21:00,34.7,37.0,29.71,East,100,8.0,8.0,43,0.00,,,0.00,meteohub,2013-03-24 11:21:00,
2013-03-24 06:26:00,34.7,37.6,29.71,NE,50,5.0,11.0,42,0.00,,,0.00,meteohub,2013-03-24 11:26:00,
2013-03-24 06:31:00,34.7,37.6,29.71,NNE,23,5.0,11.0,42,0.00,,,0.00,meteohub,2013-03-24 11:31:00,
2013-03-24 06:37:00,34.7,37.2,29.71,ENE,59,10.0,11.0,42,0.00,,,0.00,meteohub,2013-03-24 11:37:00,
2013-03-24 06:42:00,34.5,37.2,29.68,NE,55,4.0,10.0,42,0.00,,,0.00,meteohub,2013-03-24 11:42:00,
2013-03-24 06:47:00,34.5,37.6,29.68,ENE,57,5.0,10.0,42,0.00,,,0.00,meteohub,2013-03-24 11:47:00,
2013-03-24 06:52:00,34.5,37.4,29.68,East,92,5.0,10.0,42,0.00,,,0.00,meteohub,2013-03-24 11:52:00,
2013-03-24 06:57:00,34.5,37.2,29.68,NE,46,4.0,11.0,42,0.00,,,0.00,meteohub,2013-03-24 11:57:00,
2013-03-24 07:02:00,34.5,37.0,29.68,NE,54,5.0,11.0,42,0.00,,,0.00,meteohub,2013-03-24 12:02:00,
2013-03-24 07:08:00,34.5,37.6,29.68,ENE,76,4.0,11.0,42,0.00,,,0.00,meteohub,2013-03-24 12:08:00,
2013-03-24 07:13:00,34.5,37.4,29.68,NNE,31,10.0,10.0,42,0.00,,,0.00,meteohub,2013-03-24 12:13:00,
2013-03-24 07:18:00,34.5,37.2,29.68,NE,50,6.0,10.0,42,0.00,,,0.00,meteohub,2013-03-24 12:18:00,
2013-03-24 07:23:00,34.5,37.0,29.68,ENE,69,5.0,12.0,42,0.00,,,0.00,meteohub,2013-03-24 12:23:00,
2013-03-24 07:29:00,34.5,37.4,29.68,ESE,102,3.0,12.0,42,0.00,,,0.00,meteohub,2013-03-24 12:29:00,
2013-03-24 07:34:00,34.3,37.4,29.68,NE,42,8.0,12.0,42,0.00,,,0.00,meteohub,2013-03-24 12:34:00,
2013-03-24 07:39:00,34.3,37.2,29.62,East,92,5.0,9.0,42,0.00,,,0.00,meteohub,2013-03-24 12:39:00,
2013-03-24 07:44:00,34.3,37.0,29.62,ENE,62,6.0,11.0,43,0.00,,,0.00,meteohub,2013-03-24 12:44:00,
2013-03-24 07:49:00,34.3,37.4,29.62,East,91,6.0,12.0,43,0.00,,,0.00,meteohub,2013-03-24 12:49:00,
2013-03-24 07:55:00,34.3,37.0,29.62,ENE,65,6.0,12.0,43,0.00,,,0.00,meteohub,2013-03-24 12:55:00,
2013-03-24 08:00:00,34.3,37.6,29.62,ENE,75,5.0,11.0,44,0.00,,,0.00,meteohub,2013-03-24 13:00:00,
2013-03-24 08:05:00,34.5,37.4,29.62,SE,129,4.0,11.0,44,0.00,,,0.00,meteohub,2013-03-24 13:05:00,
2013-03-24 08:11:00,34.5,37.2,29.62,East,86,5.0,11.0,44,0.00,,,0.00,meteohub,2013-03-24 13:11:00,
2013-03-24 08:16:00,34.5,37.0,29.62,ENE,74,4.0,9.0,44,0.00,,,0.00,meteohub,2013-03-24 13:16:00,
2013-03-24 08:22:00,34.5,36.9,29.62,ENE,76,4.0,12.0,44,0.00,,,0.00,meteohub,2013-03-24 13:22:00,
2013-03-24 08:27:00,34.5,36.9,29.62,East,93,4.0,12.0,44,0.00,,,0.00,meteohub,2013-03-24 13:27:00,
2013-03-24 08:32:00,34.5,36.7,29.62,ENE,71,6.0,11.0,44,0.00,,,0.00,meteohub,2013-03-24 13:32:00,
2013-03-24 08:38:00,34.5,36.5,29.62,ENE,74,4.0,10.0,44,0.00,,,0.00,meteohub,2013-03-24 13:38:00,
2013-03-24 08:43:00,34.3,36.3,29.56,East,81,6.0,10.0,44,0.00,,,0.00,meteohub,2013-03-24 13:43:00,
2013-03-24 08:48:00,34.3,36.3,29.56,ENE,69,4.0,13.0,43,0.00,,,0.00,meteohub,2013-03-24 13:48:00,
2013-03-24 08:54:00,34.3,36.3,29.56,East,97,3.0,13.0,44,0.00,,,0.00,meteohub,2013-03-24 13:54:00,
2013-03-24 08:59:00,34.3,36.3,29.56,NE,42,13.0,13.0,44,0.00,,,0.00,meteohub,2013-03-24 13:59:00,
2013-03-24 09:04:00,34.3,36.1,29.56,NNE,22,4.0,11.0,45,0.00,,,0.00,meteohub,2013-03-24 14:04:00,
2013-03-24 09:09:00,34.3,36.1,29.59,North,357,4.0,13.0,45,0.04,,,0.04,meteohub,2013-03-24 14:09:00,
2013-03-24 09:15:00,34.3,36.5,29.59,WNW,294,5.0,8.0,45,0.04,,,0.04,meteohub,2013-03-24 14:15:00,
2013-03-24 09:20:00,34.3,37.0,29.59,NW,321,3.0,8.0,45,0.04,,,0.04,meteohub,2013-03-24 14:20:00,
2013-03-24 09:25:00,34.3,37.2,29.62,WNW,288,5.0,8.0,45,0.04,,,0.04,meteohub,2013-03-24 14:25:00,
2013-03-24 09:32:00,34.3,37.6,29.62,NNE,31,5.0,8.0,45,0.04,,,0.04,meteohub,2013-03-24 14:32:00,
2013-03-24 09:37:00,34.2,37.6,29.62,NW,318,3.0,8.0,44,0.04,,,0.04,meteohub,2013-03-24 14:37:00,
2013-03-24 09:42:00,34.0,38.5,29.65,North,0,3.0,6.0,44,0.04,,,0.04,meteohub,2013-03-24 14:42:00,
2013-03-24 09:47:00,33.8,39.2,29.65,NNE,20,5.0,6.0,44,0.04,,,0.04,meteohub,2013-03-24 14:47:00,
2013-03-24 09:52:00,33.8,38.8,29.65,North,10,6.0,9.0,44,0.04,,,0.04,meteohub,2013-03-24 14:52:00,
2013-03-24 09:57:00,33.6,38.8,29.62,NNW,345,4.0,9.0,45,0.04,,,0.04,meteohub,2013-03-24 14:57:00,
2013-03-24 10:03:00,33.6,38.8,29.62,NNE,16,7.0,9.0,45,0.00,,,0.04,meteohub,2013-03-24 15:03:00,
2013-03-24 10:08:00,33.6,38.8,29.62,NNE,23,6.0,8.0,45,0.00,,,0.04,meteohub,2013-03-24 15:08:00,
2013-03-24 10:13:00,33.6,39.2,29.62,NNE,18,6.0,8.0,45,0.00,,,0.04,meteohub,2013-03-24 15:13:00,
2013-03-24 10:18:00,33.6,39.0,29.62,North,0,5.0,8.0,46,0.00,,,0.04,meteohub,2013-03-24 15:18:00,
2013-03-24 10:23:00,33.6,38.8,29.62,NNE,32,5.0,8.0,46,0.00,,,0.04,meteohub,2013-03-24 15:23:00,
2013-03-24 10:28:00,33.6,39.2,29.59,North,7,5.0,9.0,46,0.00,,,0.04,meteohub,2013-03-24 15:28:00,
2013-03-24 10:34:00,33.6,38.7,29.59,North,3,6.0,9.0,47,0.00,,,0.04,meteohub,2013-03-24 15:34:00,
2013-03-24 10:39:00,33.6,38.8,29.62,NNW,339,4.0,8.0,47,0.00,,,0.04,meteohub,2013-03-24 15:39:00,
2013-03-24 10:44:00,33.4,39.2,29.62,NNE,21,8.0,9.0,47,0.00,,,0.04,meteohub,2013-03-24 15:44:00,
2013-03-24 10:49:00,33.4,38.8,29.62,North,5,5.0,9.0,48,0.00,,,0.04,meteohub,2013-03-24 15:49:00,
2013-03-24 10:55:00,33.4,38.8,29.59,North,350,6.0,9.0,48,0.00,,,0.04,meteohub,2013-03-24 15:55:00,
2013-03-24 11:00:00,33.4,38.7,29.59,NNE,15,4.0,10.0,48,0.00,,,0.04,meteohub,2013-03-24 16:00:00,
2013-03-24 11:05:00,33.4,38.3,29.59,North,357,6.0,10.0,49,0.00,,,0.04,meteohub,2013-03-24 16:05:00,
2013-03-24 11:10:00,33.3,38.1,29.59,North,357,6.0,9.0,49,0.00,,,0.04,meteohub,2013-03-24 16:10:00,
2013-03-24 11:15:00,33.3,38.7,29.59,NNW,345,10.0,10.0,49,0.00,,,0.04,meteohub,2013-03-24 16:15:00,
2013-03-24 11:21:00,33.3,39.2,29.59,NNE,22,5.0,14.0,50,0.00,,,0.04,meteohub,2013-03-24 16:21:00,
2013-03-24 11:26:00,33.1,39.0,29.59,North,357,6.0,14.0,50,0.00,,,0.04,meteohub,2013-03-24 16:26:00,
2013-03-24 11:31:00,33.1,38.1,29.59,East,91,8.0,14.0,50,0.00,,,0.04,meteohub,2013-03-24 16:31:00,
2013-03-24 11:36:00,33.1,38.8,29.59,NNW,343,5.0,11.0,51,0.00,,,0.04,meteohub,2013-03-24 16:36:00,
2013-03-24 11:41:00,33.1,38.8,29.59,North,357,6.0,11.0,51,0.00,,,0.04,meteohub,2013-03-24 16:41:00,
2013-03-24 11:47:00,32.9,38.7,29.59,NNE,27,6.0,11.0,51,0.00,,,0.04,meteohub,2013-03-24 16:47:00,
2013-03-24 11:52:00,32.9,39.2,29.59,North,2,4.0,9.0,51,0.00,,,0.04,meteohub,2013-03-24 16:52:00,
2013-03-24 11:57:00,33.1,38.3,29.56,North,5,5.0,9.0,51,0.00,,,0.04,meteohub,2013-03-24 16:57:00,
2013-03-24 12:02:00,33.1,38.3,29.56,NNW,337,4.0,9.0,52,0.00,,,0.04,meteohub,2013-03-24 17:02:00,
2013-03-24 12:07:00,33.1,38.8,29.56,NNE,18,10.0,10.0,52,0.00,,,0.04,meteohub,2013-03-24 17:07:00,
2013-03-24 12:13:00,33.1,38.8,29.56,NNE,25,3.0,11.0,52,0.00,,,0.04,meteohub,2013-03-24 17:13:00,
2013-03-24 12:18:00,33.1,39.2,29.56,North,11,2.0,13.0,52,0.00,,,0.04,meteohub,2013-03-24 17:18:00,
2013-03-24 12:23:00,33.1,38.5,29.56,NNE,13,8.0,13.0,52,0.00,,,0.04,meteohub,2013-03-24 17:23:00,
2013-03-24 12:28:00,32.9,38.3,29.56,NNE,13,5.0,10.0,52,0.00,,,0.04,meteohub,2013-03-24 17:28:00,
2013-03-24 12:33:00,32.9,38.1,29.56,NNE,17,7.0,9.0,52,0.00,,,0.04,meteohub,2013-03-24 17:33:00,
2013-03-24 12:39:00,32.7,39.0,29.56,NNE,18,9.0,9.0,52,0.00,,,0.04,meteohub,2013-03-24 17:39:00,
2013-03-24 12:44:00,32.7,38.7,29.56,North,357,2.0,9.0,52,0.00,,,0.04,meteohub,2013-03-24 17:44:00,
2013-03-24 12:49:00,32.7,38.5,29.56,NNE,18,6.0,9.0,52,0.00,,,0.04,meteohub,2013-03-24 17:49:00,
2013-03-24 12:54:00,32.7,38.3,29.56,North,350,0.0,9.0,52,0.00,,,0.04,meteohub,2013-03-24 17:54:00,
2013-03-24 13:00:00,32.7,38.1,29.56,North,3,0.0,9.0,52,0.00,,,0.04,meteohub,2013-03-24 18:00:00,
2013-03-24 13:05:00,32.7,37.9,29.56,NNE,16,0.0,9.0,53,0.00,,,0.04,meteohub,2013-03-24 18:05:00,
2013-03-24 13:10:00,32.7,37.9,29.56,North,6,0.0,0.0,53,0.00,,,0.04,meteohub,2013-03-24 18:10:00,
2013-03-24 13:15:00,32.9,39.0,29.56,NNW,343,0.0,0.0,53,0.00,,,0.04,meteohub,2013-03-24 18:15:00,
2013-03-24 13:20:00,32.9,38.1,29.56,NNE,19,0.0,0.0,53,0.00,,,0.04,meteohub,2013-03-24 18:20:00,
2013-03-24 13:26:00,32.9,37.9,29.56,NNE,21,0.0,0.0,53,0.00,,,0.04,meteohub,2013-03-24 18:26:00,
2013-03-24 13:31:00,32.9,37.8,29.56,North,9,0.0,0.0,53,0.00,,,0.04,meteohub,2013-03-24 18:31:00,
2013-03-24 13:37:00,32.9,37.6,29.56,North,353,0.0,0.0,53,0.00,,,0.04,meteohub,2013-03-24 18:37:00,
2013-03-24 13:42:00,33.1,37.9,29.56,NNE,32,0.0,0.0,54,0.00,,,0.04,meteohub,2013-03-24 18:42:00,
2013-03-24 13:47:00,33.1,37.8,29.56,North,349,0.0,0.0,54,0.00,,,0.04,meteohub,2013-03-24 18:47:00,
2013-03-24 13:52:00,33.3,37.6,29.56,NNE,33,0.0,0.0,54,0.00,,,0.04,meteohub,2013-03-24 18:52:00,
2013-03-24 13:58:00,33.4,37.6,29.56,NNW,328,0.0,0.0,54,0.00,,,0.04,meteohub,2013-03-24 18:58:00,
2013-03-24 14:03:00,33.4,37.6,29.56,NNE,18,0.0,0.0,54,0.00,,,0.04,meteohub,2013-03-24 19:03:00,
2013-03-24 14:08:00,33.6,37.6,29.56,NNW,346,0.0,0.0,54,0.00,,,0.04,meteohub,2013-03-24 19:08:00,
2013-03-24 14:14:00,33.6,37.8,29.56,North,353,0.0,0.0,55,0.00,,,0.04,meteohub,2013-03-24 19:14:00,
2013-03-24 14:19:00,33.8,37.8,29.56,North,0,0.0,0.0,55,0.00,,,0.04,meteohub,2013-03-24 19:19:00,
2013-03-24 14:24:00,34.0,37.6,29.56,NNW,329,0.0,0.0,55,0.00,,,0.04,meteohub,2013-03-24 19:24:00,
2013-03-24 14:29:00,33.8,37.6,29.56,NW,324,0.0,0.0,54,0.00,,,0.04,meteohub,2013-03-24 19:29:00,
2013-03-24 14:35:00,33.8,37.4,29.56,NW,313,0.0,0.0,53,0.00,,,0.04,meteohub,2013-03-24 19:35:00,
2013-03-24 14:40:00,33.6,37.6,29.56,NW,324,0.0,0.0,53,0.00,,,0.04,meteohub,2013-03-24 19:40:00,
2013-03-24 14:45:00,33.4,37.8,29.56,NNW,331,0.0,0.0,53,0.00,,,0.04,meteohub,2013-03-24 19:45:00,
2013-03-24 14:50:00,33.6,37.6,29.56,NNW,336,0.0,0.0,54,0.00,,,0.04,meteohub,2013-03-24 19:50:00,
2013-03-24 14:55:00,33.6,37.6,29.59,NW,306,0.0,0.0,54,0.00,,,0.04,meteohub,2013-03-24 19:55:00,
2013-03-24 15:01:00,33.4,38.3,29.59,NW,308,0.0,0.0,54,0.00,,,0.04,meteohub,2013-03-24 20:01:00,
2013-03-24 15:06:00,33.4,38.1,29.59,North,0,0.0,0.0,53,0.00,,,0.04,meteohub,2013-03-24 20:06:00,
2013-03-24 15:12:00,33.3,37.9,29.59,NNW,342,0.0,0.0,53,0.00,,,0.04,meteohub,2013-03-24 20:12:00,
2013-03-24 15:17:00,33.3,38.3,29.59,NNW,344,0.0,0.0,53,0.00,,,0.04,meteohub,2013-03-24 20:17:00,
2013-03-24 15:22:00,33.3,38.1,29.59,NW,305,0.0,0.0,54,0.00,,,0.04,meteohub,2013-03-24 20:22:00,
2013-03-24 15:27:00,33.3,37.9,29.59,North,0,0.0,0.0,54,0.00,,,0.04,meteohub,2013-03-24 20:27:00,
2013-03-24 15:33:00,33.3,37.8,29.59,NW,304,0.0,0.0,54,0.00,,,0.04,meteohub,2013-03-24 20:33:00,
2013-03-24 15:38:00,33.3,37.6,29.59,North,0,0.0,0.0,54,0.00,,,0.04,meteohub,2013-03-24 20:38:00,
2013-03-24 15:43:00,33.3,38.1,29.59,NW,318,0.0,0.0,55,0.00,,,0.04,meteohub,2013-03-24 20:43:00,
2013-03-24 15:49:00,33.1,37.9,29.59,NW,309,0.0,0.0,55,0.00,,,0.04,meteohub,2013-03-24 20:49:00,
2013-03-24 15:54:00,33.1,37.8,29.59,NW,317,0.0,0.0,55,0.00,,,0.04,meteohub,2013-03-24 20:54:00,
2013-03-24 15:59:00,33.1,37.6,29.59,North,7,0.0,0.0,55,0.00,,,0.04,meteohub,2013-03-24 20:59:00,
2013-03-24 16:05:00,33.3,37.6,29.59,NNE,23,0.0,0.0,56,0.00,,,0.04,meteohub,2013-03-24 21:05:00,
2013-03-24 16:10:00,33.1,37.8,29.59,NNE,12,0.0,0.0,56,0.00,,,0.04,meteohub,2013-03-24 21:10:00,
2013-03-24 16:15:00,33.1,37.9,29.59,North,353,0.0,0.0,56,0.00,,,0.04,meteohub,2013-03-24 21:15:00,
2013-03-24 16:20:00,33.1,37.6,29.59,NNW,332,0.0,0.0,55,0.00,,,0.04,meteohub,2013-03-24 21:20:00,
2013-03-24 16:26:00,32.9,37.6,29.62,NW,314,0.0,0.0,56,0.00,,,0.04,meteohub,2013-03-24 21:26:00,
2013-03-24 16:31:00,32.9,37.6,29.62,North,5,0.0,0.0,56,0.00,,,0.04,meteohub,2013-03-24 21:31:00,
2013-03-24 16:36:00,32.9,37.8,29.62,NW,308,0.0,0.0,56,0.00,,,0.04,meteohub,2013-03-24 21:36:00,
2013-03-24 16:41:00,32.9,37.8,29.62,North,353,0.0,0.0,57,0.00,,,0.04,meteohub,2013-03-24 21:41:00,
2013-03-24 16:47:00,32.9,37.8,29.62,NW,320,0.0,0.0,57,0.00,,,0.04,meteohub,2013-03-24 21:47:00,
2013-03-24 16:52:00,32.9,37.6,29.62,North,1,0.0,0.0,57,0.00,,,0.04,meteohub,2013-03-24 21:52:00,
2013-03-24 16:57:00,32.9,37.4,29.62,North,357,0.0,0.0,57,0.00,,,0.04,meteohub,2013-03-24 21:57:00,
2013-03-24 17:02:00,32.9,37.6,29.62,NW,308,0.0,0.0,57,0.00,,,0.04,meteohub,2013-03-24 22:02:00,
2013-03-24 17:07:00,32.9,37.6,29.62,NW,324,0.0,0.0,58,0.00,,,0.04,meteohub,2013-03-24 22:07:00,
2013-03-24 17:13:00,32.9,37.6,29.62,NNW,339,0.0,0.0,58,0.00,,,0.04,meteohub,2013-03-24 22:13:00,
2013-03-24 17:18:00,32.9,37.2,29.62,NNW,328,0.0,0.0,58,0.00,,,0.04,meteohub,2013-03-24 22:18:00,
2013-03-24 17:23:00,32.9,37.2,29.62,WNW,303,0.0,0.0,58,0.00,,,0.04,meteohub,2013-03-24 22:23:00,
2013-03-24 17:28:00,32.9,37.9,29.65,NW,308,0.0,0.0,58,0.00,,,0.04,meteohub,2013-03-24 22:28:00,
2013-03-24 17:33:00,32.7,37.8,29.65,NNW,332,0.0,0.0,58,0.00,,,0.04,meteohub,2013-03-24 22:33:00,
2013-03-24 17:38:00,32.7,37.6,29.65,WNW,298,0.0,0.0,58,0.00,,,0.04,meteohub,2013-03-24 22:38:00,
2013-03-24 17:44:00,32.7,37.4,29.65,North,349,0.0,0.0,59,0.00,,,0.04,meteohub,2013-03-24 22:44:00,
2013-03-24 17:49:00,32.7,37.2,29.65,North,353,0.0,0.0,59,0.00,,,0.04,meteohub,2013-03-24 22:49:00,
2013-03-24 17:54:00,32.5,37.8,29.65,NNW,329,0.0,0.0,59,0.00,,,0.04,meteohub,2013-03-24 22:54:00,
2013-03-24 18:00:00,32.5,37.9,29.65,NNW,340,0.0,0.0,59,0.00,,,0.04,meteohub,2013-03-24 23:00:00,
2013-03-24 18:05:00,32.5,37.6,29.65,North,8,0.0,0.0,59,0.00,,,0.04,meteohub,2013-03-24 23:05:00,
2013-03-24 18:10:00,32.5,37.6,29.68,NNE,24,0.0,0.0,59,0.00,,,0.04,meteohub,2013-03-24 23:10:00,
2013-03-24 18:16:00,32.5,38.1,29.68,North,357,0.0,0.0,59,0.00,,,0.04,meteohub,2013-03-24 23:16:00,
2013-03-24 18:21:00,32.5,38.8,29.68,NNW,346,0.0,0.0,59,0.00,,,0.04,meteohub,2013-03-24 23:21:00,
2013-03-24 18:26:00,32.4,38.7,29.68,WNW,302,0.0,0.0,59,0.00,,,0.04,meteohub,2013-03-24 23:26:00,
2013-03-24 18:32:00,32.4,38.5,29.68,NW,306,0.0,0.0,59,0.00,,,0.04,meteohub,2013-03-24 23:32:00,
2013-03-24 18:37:00,32.4,38.3,29.68,North,0,0.0,0.0,59,0.00,,,0.04,meteohub,2013-03-24 23:37:00,
2013-03-24 18:42:00,32.4,38.7,29.68,NNW,332,0.0,0.0,59,0.00,,,0.04,meteohub,2013-03-24 23:42:00,
2013-03-24 18:47:00,32.4,38.8,29.68,NW,325,0.0,0.0,59,0.00,,,0.04,meteohub,2013-03-24 23:47:00,
2013-03-24 18:53:00,32.4,38.7,29.68,North,353,0.0,0.0,60,0.00,,,0.04,meteohub,2013-03-24 23:53:00,
2013-03-24 18:58:00,32.4,38.5,29.71,North,0,0.0,0.0,60,0.00,,,0.04,meteohub,2013-03-24 23:58:00,
2013-03-24 19:03:00,32.2,38.5,29.71,NW,318,0.0,0.0,60,0.00,,,0.04,meteohub,2013-03-25 00:03:00,
2013-03-24 19:09:00,32.2,38.3,29.71,WNW,302,0.0,0.0,60,0.00,,,0.04,meteohub,2013-03-25 00:09:00,
2013-03-24 19:14:00,32.2,38.1,29.71,NNW,344,0.0,0.0,60,0.00,,,0.04,meteohub,2013-03-25 00:14:00,
2013-03-24 19:19:00,32.2,38.1,29.71,NW,318,0.0,0.0,60,0.00,,,0.04,meteohub,2013-03-25 00:19:00,
2013-03-24 19:24:00,32.2,38.3,29.71,NNW,339,0.0,0.0,61,0.00,,,0.04,meteohub,2013-03-25 00:24:00,
2013-03-24 19:29:00,32.2,38.7,29.71,NNW,337,0.0,0.0,61,0.00,,,0.04,meteohub,2013-03-25 00:29:00,
2013-03-24 19:34:00,32.0,38.5,29.71,NNW,333,0.0,0.0,61,0.00,,,0.04,meteohub,2013-03-25 00:34:00,
2013-03-24 19:39:00,32.0,38.5,29.71,North,353,0.0,0.0,61,0.00,,,0.04,meteohub,2013-03-25 00:39:00,
2013-03-24 19:45:00,32.0,38.1,29.74,NW,310,0.0,0.0,61,0.00,,,0.04,meteohub,2013-03-25 00:45:00,
2013-03-24 19:50:00,32.0,38.1,29.74,NW,315,0.0,0.0,61,0.00,,,0.04,meteohub,2013-03-25 00:50:00,
2013-03-24 19:55:00,32.0,37.9,29.74,NNW,335,0.0,0.0,62,0.00,,,0.04,meteohub,2013-03-25 00:55:00,
2013-03-24 20:00:00,32.0,37.9,29.74,North,357,0.0,0.0,62,0.00,,,0.04,meteohub,2013-03-25 01:00:00,
2013-03-24 20:05:00,32.0,37.8,29.74,North,353,0.0,0.0,62,0.00,,,0.04,meteohub,2013-03-25 01:05:00,
2013-03-24 20:10:00,32.0,37.8,29.74,NW,319,0.0,0.0,62,0.00,,,0.04,meteohub,2013-03-25 01:10:00,
2013-03-24 20:15:00,32.0,37.6,29.74,NNW,341,0.0,0.0,62,0.00,,,0.04,meteohub,2013-03-25 01:15:00,
2013-03-24 20:21:00,32.0,37.9,29.74,North,7,0.0,0.0,62,0.00,,,0.04,meteohub,2013-03-25 01:21:00,
2013-03-24 20:26:00,32.0,37.9,29.74,WNW,294,0.0,0.0,62,0.00,,,0.04,meteohub,2013-03-25 01:26:00,
2013-03-24 20:31:00,31.8,37.9,29.74,NNW,337,0.0,0.0,62,0.00,,,0.04,meteohub,2013-03-25 01:31:00,
2013-03-24 20:36:00,31.8,37.8,29.74,NW,318,0.0,0.0,62,0.00,,,0.04,meteohub,2013-03-25 01:36:00,
2013-03-24 20:41:00,31.8,37.6,29.77,NNW,334,0.0,0.0,63,0.00,,,0.04,meteohub,2013-03-25 01:41:00,
2013-03-24 20:46:00,31.8,37.6,29.77,North,353,0.0,0.0,63,0.00,,,0.04,meteohub,2013-03-25 01:46:00,
2013-03-24 20:52:00,31.8,37.6,29.77,NNW,328,0.0,0.0,63,0.00,,,0.04,meteohub,2013-03-25 01:52:00,
2013-03-24 20:57:00,31.8,37.6,29.77,NW,305,0.0,0.0,63,0.00,,,0.04,meteohub,2013-03-25 01:57:00,
2013-03-24 21:02:00,31.8,37.9,29.77,NNW,332,0.0,0.0,63,0.00,,,0.04,meteohub,2013-03-25 02:02:00,
2013-03-24 21:08:00,31.8,38.1,29.77,NNW,340,0.0,0.0,63,0.00,,,0.04,meteohub,2013-03-25 02:08:00,
2013-03-24 21:13:00,31.8,37.9,29.77,NNW,340,0.0,0.0,63,0.00,,,0.04,meteohub,2013-03-25 02:13:00,
2013-03-24 21:18:00,31.8,37.8,29.77,NW,315,0.0,0.0,63,0.00,,,0.04,meteohub,2013-03-25 02:18:00,
2013-03-24 21:23:00,31.8,38.3,29.77,NNE,14,0.0,0.0,63,0.00,,,0.04,meteohub,2013-03-25 02:23:00,
2013-03-24 21:28:00,31.8,38.3,29.77,NNW,336,0.0,0.0,64,0.00,,,0.04,meteohub,2013-03-25 02:28:00,
2013-03-24 21:34:00,31.8,37.9,29.77,NW,325,0.0,0.0,64,0.00,,,0.04,meteohub,2013-03-25 02:34:00,
2013-03-24 21:39:00,31.8,38.1,29.77,NW,316,0.0,0.0,64,0.00,,,0.04,meteohub,2013-03-25 02:39:00,
2013-03-24 21:44:00,31.8,38.3,29.77,WNW,289,0.0,0.0,64,0.00,,,0.04,meteohub,2013-03-25 02:44:00,
2013-03-24 21:49:00,31.8,38.1,29.77,NNW,328,0.0,0.0,64,0.00,,,0.04,meteohub,2013-03-25 02:49:00,
2013-03-24 21:54:00,31.8,37.9,29.77,NNW,328,0.0,0.0,64,0.00,,,0.04,meteohub,2013-03-25 02:54:00,
2013-03-24 22:00:00,31.8,38.5,29.77,SW,218,0.0,0.0,64,0.00,,,0.04,meteohub,2013-03-25 03:00:00,
2013-03-24 22:05:00,31.8,38.3,29.77,NW,312,0.0,0.0,65,0.00,,,0.04,meteohub,2013-03-25 03:05:00,
2013-03-24 22:11:00,31.8,37.9,29.80,NW,308,0.0,0.0,65,0.00,,,0.04,meteohub,2013-03-25 03:11:00,
2013-03-24 22:16:00,31.8,37.2,29.80,WNW,298,0.0,0.0,65,0.00,,,0.04,meteohub,2013-03-25 03:16:00,
2013-03-24 22:21:00,31.8,38.5,29.80,NNW,330,0.0,0.0,65,0.00,,,0.04,meteohub,2013-03-25 03:21:00,
2013-03-24 22:27:00,31.8,38.3,29.80,WNW,303,0.0,0.0,65,0.00,,,0.04,meteohub,2013-03-25 03:27:00,
2013-03-24 22:32:00,31.8,37.2,29.80,NW,318,0.0,0.0,65,0.00,,,0.04,meteohub,2013-03-25 03:32:00,
2013-03-24 22:37:00,31.8,37.0,29.80,NW,312,0.0,0.0,65,0.00,,,0.04,meteohub,2013-03-25 03:37:00,
2013-03-24 22:42:00,31.8,37.6,29.80,NNW,343,0.0,0.0,65,0.00,,,0.04,meteohub,2013-03-25 03:42:00,
2013-03-24 22:47:00,31.8,37.6,29.80,NNW,338,0.0,0.0,66,0.00,,,0.04,meteohub,2013-03-25 03:47:00,
2013-03-24 22:52:00,31.8,37.2,29.80,WNW,303,0.0,0.0,66,0.00,,,0.04,meteohub,2013-03-25 03:52:00,
2013-03-24 22:57:00,31.8,37.0,29.80,WNW,292,0.0,0.0,66,0.00,,,0.04,meteohub,2013-03-25 03:57:00,
2013-03-24 23:00:00,31.8,37.0,29.80,NW,316,0.0,0.0,66,0.00,,,0.04,meteohub,2013-03-25 04:00:00,
2013-03-24 23:03:00,31.8,37.2,29.80,NW,312,0.0,0.0,66,0.00,,,0.04,meteohub,2013-03-25 04:03:00,
2013-03-24 23:08:00,31.8,37.2,29.80,NNW,327,0.0,0.0,66,0.00,,,0.04,meteohub,2013-03-25 04:08:00,
2013-03-24 23:10:00,31.8,37.0,29.80,NNW,340,0.0,0.0,66,0.00,,,0.04,meteohub,2013-03-25 04:10:00,
2013-03-24 23:15:00,31.8,37.6,29.80,NNW,342,0.0,0.0,66,0.00,,,0.04,meteohub,2013-03-25 04:15:00,
2013-03-24 23:21:00,31.8,37.6,29.80,NNW,339,0.0,0.0,66,0.00,,,0.04,meteohub,2013-03-25 04:21:00,
2013-03-24 23:26:00,31.8,37.2,29.80,NW,316,0.0,0.0,66,0.00,,,0.04,meteohub,2013-03-25 04:26:00,
2013-03-24 23:31:00,31.8,37.0,29.80,NW,318,0.0,0.0,66,0.00,,,0.04,meteohub,2013-03-25 04:31:00,
2013-03-24 23:37:00,31.8,37.6,29.80,WNW,293,0.0,0.0,66,0.00,,,0.04,meteohub,2013-03-25 04:37:00,
2013-03-24 23:42:00,31.8,37.0,29.83,North,350,0.0,0.0,66,0.00,,,0.04,meteohub,2013-03-25 04:42:00,
2013-03-24 23:47:00,31.8,37.0,29.83,North,0,0.0,0.0,66,0.00,,,0.04,meteohub,2013-03-25 04:47:00,
2013-03-24 23:53:00,31.8,37.6,29.83,North,353,0.0,0.0,66,0.00,,,0.04,meteohub,2013-03-25 04:53:00,
2013-03-24 23:58:00,31.8,37.6,29.83,North,0,0.0,0.0,66,0.00,,,0.04,meteohub,2013-03-25 04:58:00,